ALK103 VCBI-VRMM

Flight info

Callsign ALK103
Flight time 1h 13m
Altitude 34000
Route LALUM DCT HOKEY HOKEY1A
Aircraft A320/M-SDE3FGHIRWY/LB1

Departure

Time 2026-04-22 11:36
Airport Bandaranaike International Colombo Airport (VCBI)

Arrival

Time 2026-04-22 12:49
Airport Velana International Airport (VRMM)
Time Latitude Longitude Altitude Speed Heading
2026-04-22 10:52 7.17741 79.88429 27 ft 0 kts 217°
2026-04-22 11:25 7.17741 79.88430 27 ft 0 kts 217°
2026-04-22 11:25 7.17759 79.88443 27 ft 4 kts 210°
2026-04-22 11:25 7.17783 79.88455 27 ft 4 kts 207°
2026-04-22 11:26 7.17805 79.88469 27 ft 4 kts 235°
2026-04-22 11:26 7.17810 79.88490 27 ft 4 kts 278°
2026-04-22 11:26 7.17801 79.88514 27 ft 4 kts 308°
2026-04-22 11:26 7.17785 79.88533 27 ft 1 kts 307°
2026-04-22 11:29 7.17786 79.88532 27 ft 1 kts 307°
2026-04-22 11:30 7.17795 79.88519 27 ft 3 kts 307°
2026-04-22 11:30 7.17814 79.88493 27 ft 6 kts 307°
2026-04-22 11:30 7.17844 79.88454 47 ft 8 kts 307°
2026-04-22 11:30 7.17900 79.88439 28 ft 10 kts 19°
2026-04-22 11:31 7.17960 79.88483 28 ft 12 kts 37°
2026-04-22 11:31 7.18031 79.88537 27 ft 14 kts 37°
2026-04-22 11:31 7.18115 79.88601 27 ft 16 kts 37°
2026-04-22 11:31 7.18211 79.88674 27 ft 18 kts 37°
2026-04-22 11:32 7.18317 79.88756 27 ft 20 kts 37°
2026-04-22 11:32 7.18436 79.88846 28 ft 22 kts 38°
2026-04-22 11:32 7.18548 79.88932 28 ft 18 kts 37°
2026-04-22 11:32 7.18651 79.89010 28 ft 20 kts 37°
2026-04-22 11:33 7.18766 79.89098 28 ft 22 kts 37°
2026-04-22 11:33 7.18894 79.89196 27 ft 24 kts 37°
2026-04-22 11:33 7.19033 79.89302 27 ft 21 kts 37°
2026-04-22 11:33 7.19116 79.89365 27 ft 14 kts 37°
2026-04-22 11:34 7.19199 79.89403 27 ft 14 kts 345°
2026-04-22 11:34 7.19231 79.89377 27 ft 0 kts 311°
2026-04-22 11:34 7.19237 79.89369 27 ft 3 kts 309°
2026-04-22 11:34 7.19255 79.89346 27 ft 5 kts 308°
2026-04-22 11:35 7.19279 79.89307 27 ft 8 kts 289°
2026-04-22 11:35 7.19262 79.89252 27 ft 10 kts 227°
2026-04-22 11:35 7.19203 79.89207 28 ft 12 kts 217°
2026-04-22 11:35 7.19115 79.89139 28 ft 30 kts 217°
2026-04-22 11:36 7.18758 79.88866 29 ft 97 kts 217°
2026-04-22 11:36 7.18077 79.88346 31 ft 147 kts 217°
2026-04-22 11:36 7.17226 79.87697 458 ft 153 kts 219°
2026-04-22 11:36 7.16388 79.87055 974 ft 154 kts 220°
2026-04-22 11:37 7.15533 79.86397 1559 ft 155 kts 218°
2026-04-22 11:37 7.14659 79.85725 2017 ft 166 kts 217°
2026-04-22 11:37 7.13681 79.84971 2239 ft 188 kts 218°
2026-04-22 11:37 7.12689 79.83992 2435 ft 212 kts 230°
2026-04-22 11:38 7.11707 79.82768 2760 ft 236 kts 232°
2026-04-22 11:38 7.10646 79.81395 3144 ft 260 kts 232°
2026-04-22 11:38 7.08361 79.78422 3994 ft 273 kts 232°
2026-04-22 11:39 7.07184 79.76901 4435 ft 277 kts 232°
2026-04-22 11:39 7.05986 79.75358 5271 ft 281 kts 232°
2026-04-22 11:39 7.04769 79.73796 6094 ft 286 kts 232°
2026-04-22 11:39 7.03531 79.72205 6832 ft 291 kts 232°
2026-04-22 11:40 7.02274 79.70589 7584 ft 296 kts 232°
2026-04-22 11:40 7.00996 79.68944 8345 ft 299 kts 232°
2026-04-22 11:40 6.99721 79.67309 9099 ft 302 kts 232°
2026-04-22 11:40 6.98415 79.65634 9846 ft 305 kts 232°
2026-04-22 11:41 6.97080 79.63923 10258 ft 321 kts 232°
2026-04-22 11:41 6.95651 79.62091 10416 ft 343 kts 232°
2026-04-22 11:41 6.94152 79.60171 10824 ft 353 kts 232°
2026-04-22 11:41 6.92625 79.58213 11430 ft 357 kts 232°
2026-04-22 11:42 6.91087 79.56243 12093 ft 359 kts 233°
2026-04-22 11:42 6.89539 79.54259 12730 ft 362 kts 233°
2026-04-22 11:42 6.88002 79.52288 13346 ft 364 kts 233°
2026-04-22 11:42 6.86435 79.50275 13941 ft 366 kts 233°
2026-04-22 11:43 6.84857 79.48252 14470 ft 369 kts 233°
2026-04-22 11:43 6.83261 79.46207 14996 ft 373 kts 233°
2026-04-22 11:43 6.81651 79.44147 15499 ft 376 kts 232°
2026-04-22 11:43 6.80023 79.42062 16022 ft 379 kts 232°
2026-04-22 11:44 6.78386 79.39964 16526 ft 383 kts 233°
2026-04-22 11:44 6.76731 79.37844 17029 ft 386 kts 233°
2026-04-22 11:44 6.75064 79.35710 17533 ft 389 kts 232°
2026-04-22 11:44 6.73382 79.33558 18061 ft 392 kts 232°
2026-04-22 11:45 6.71709 79.31417 18508 ft 395 kts 232°
2026-04-22 11:45 6.70005 79.29237 18969 ft 398 kts 232°
2026-04-22 11:45 6.68290 79.27042 19446 ft 400 kts 232°
2026-04-22 11:45 6.66568 79.24836 19944 ft 402 kts 232°
2026-04-22 11:46 6.64837 79.22617 20429 ft 404 kts 232°
2026-04-22 11:46 6.63094 79.20385 20914 ft 406 kts 232°
2026-04-22 11:46 6.61344 79.18145 21401 ft 409 kts 231°
2026-04-22 11:46 6.59577 79.15888 21887 ft 411 kts 231°
2026-04-22 11:47 6.57806 79.13628 22363 ft 413 kts 231°
2026-04-22 11:47 6.56021 79.11347 22831 ft 415 kts 231°
2026-04-22 11:47 6.54228 79.09054 23262 ft 418 kts 231°
2026-04-22 11:47 6.52421 79.06744 23654 ft 420 kts 231°
2026-04-22 11:48 6.50634 79.04464 24004 ft 422 kts 231°
2026-04-22 11:48 6.48814 79.02146 24360 ft 424 kts 231°
2026-04-22 11:48 6.46982 78.99810 24711 ft 426 kts 231°
2026-04-22 11:48 6.45146 78.97463 25069 ft 428 kts 231°
2026-04-22 11:49 6.43305 78.95106 25413 ft 430 kts 231°
2026-04-22 11:49 6.41455 78.92738 25752 ft 431 kts 231°
2026-04-22 11:49 6.39598 78.90362 26093 ft 433 kts 231°
2026-04-22 11:49 6.37729 78.87976 26427 ft 435 kts 231°
2026-04-22 11:50 6.35849 78.85581 26743 ft 437 kts 231°
2026-04-22 11:50 6.33963 78.83171 27065 ft 439 kts 230°
2026-04-22 11:50 6.32074 78.80755 27347 ft 441 kts 230°
2026-04-22 11:50 6.30174 78.78323 27654 ft 443 kts 230°
2026-04-22 11:51 6.28263 78.75884 27966 ft 445 kts 230°
2026-04-22 11:51 6.26361 78.73463 28284 ft 447 kts 230°
2026-04-22 11:51 6.24434 78.71006 28608 ft 449 kts 230°
2026-04-22 11:51 6.22500 78.68532 28926 ft 451 kts 230°
2026-04-22 11:52 6.20560 78.66054 29249 ft 452 kts 230°
2026-04-22 11:52 6.18606 78.63564 29574 ft 454 kts 230°
2026-04-22 11:52 6.16647 78.61069 29880 ft 456 kts 230°
2026-04-22 11:52 6.14711 78.58536 30144 ft 458 kts 234°
2026-04-22 11:53 6.13113 78.55757 30409 ft 462 kts 243°
2026-04-22 11:53 6.11857 78.52777 30721 ft 463 kts 245°
2026-04-22 11:53 6.10619 78.49797 31114 ft 461 kts 245°
2026-04-22 11:53 6.09383 78.46841 31511 ft 459 kts 244°
2026-04-22 11:54 6.08144 78.43888 31914 ft 457 kts 244°
2026-04-22 11:54 6.06911 78.40955 32324 ft 455 kts 244°
2026-04-22 11:54 6.05683 78.38025 32735 ft 453 kts 244°
2026-04-22 11:54 6.04463 78.35101 33151 ft 452 kts 244°
2026-04-22 11:55 6.03258 78.32199 33571 ft 450 kts 244°
2026-04-22 11:55 6.02050 78.29294 33773 ft 449 kts 243°
2026-04-22 11:55 5.99645 78.23545 33803 ft 445 kts 243°
2026-04-22 11:56 5.97238 78.17826 33806 ft 444 kts 243°
2026-04-22 11:56 5.94862 78.12135 33801 ft 444 kts 243°
2026-04-22 11:57 5.92453 78.06372 33805 ft 445 kts 243°
2026-04-22 11:57 5.90072 78.00677 33806 ft 445 kts 243°
2026-04-22 11:58 5.87676 77.94952 33809 ft 445 kts 243°
2026-04-22 11:58 5.85275 77.89220 33811 ft 445 kts 243°
2026-04-22 11:59 5.82868 77.83497 33813 ft 444 kts 243°
2026-04-22 11:59 5.80466 77.77776 33813 ft 444 kts 243°
2026-04-22 12:00 5.78069 77.72056 33812 ft 444 kts 243°
2026-04-22 12:00 5.75675 77.66333 33814 ft 444 kts 243°
2026-04-22 12:01 5.73273 77.60613 33815 ft 444 kts 243°
2026-04-22 12:01 5.70886 77.54931 33816 ft 444 kts 243°
2026-04-22 12:02 5.68494 77.49213 33815 ft 444 kts 243°
2026-04-22 12:02 5.66088 77.43497 33817 ft 444 kts 243°
2026-04-22 12:03 5.64089 77.38748 33821 ft 444 kts 243°
2026-04-22 12:03 5.61278 77.32065 33823 ft 444 kts 243°
2026-04-22 12:04 5.59279 77.27312 33824 ft 445 kts 243°
2026-04-22 12:04 5.56875 77.21593 33821 ft 444 kts 243°
2026-04-22 12:05 5.54469 77.15883 33828 ft 444 kts 243°
2026-04-22 12:05 5.52068 77.10172 33828 ft 444 kts 243°
2026-04-22 12:06 5.49673 77.04467 33825 ft 443 kts 243°
2026-04-22 12:06 5.47268 76.98767 33825 ft 443 kts 243°
2026-04-22 12:07 5.44864 76.93065 33826 ft 443 kts 243°
2026-04-22 12:07 5.42460 76.87369 33826 ft 443 kts 243°
2026-04-22 12:08 5.40077 76.81716 33821 ft 443 kts 243°
2026-04-22 12:08 5.37679 76.76017 33823 ft 442 kts 243°
2026-04-22 12:09 5.35289 76.70329 33827 ft 442 kts 243°
2026-04-22 12:09 5.32886 76.64650 33826 ft 442 kts 243°
2026-04-22 12:10 5.30487 76.58973 33822 ft 442 kts 243°
2026-04-22 12:10 5.28086 76.53302 33820 ft 441 kts 243°
2026-04-22 12:11 5.25692 76.47624 33815 ft 441 kts 243°
2026-04-22 12:11 5.23321 76.41992 33813 ft 441 kts 243°
2026-04-22 12:12 5.20916 76.36314 33812 ft 441 kts 243°
2026-04-22 12:12 5.18512 76.30649 33809 ft 441 kts 243°
2026-04-22 12:13 5.16117 76.24980 33806 ft 441 kts 243°
2026-04-22 12:13 5.13723 76.19307 33800 ft 442 kts 243°
2026-04-22 12:14 5.11342 76.13673 33801 ft 442 kts 243°
2026-04-22 12:14 5.09400 76.07771 33800 ft 446 kts 249°
2026-04-22 12:15 5.07576 76.01825 33804 ft 446 kts 249°
2026-04-22 12:15 5.05747 75.95871 33805 ft 447 kts 249°
2026-04-22 12:16 5.03913 75.89906 33807 ft 447 kts 249°
2026-04-22 12:16 5.02078 75.83947 33814 ft 447 kts 249°
2026-04-22 12:17 5.00244 75.77988 33817 ft 447 kts 249°
2026-04-22 12:17 4.98420 75.72026 33831 ft 446 kts 249°
2026-04-22 12:18 4.96585 75.66082 33833 ft 444 kts 247°
2026-04-22 12:18 4.93855 75.60610 33831 ft 437 kts 236°
2026-04-22 12:19 4.90822 75.55330 33642 ft 435 kts 236°
2026-04-22 12:19 4.89318 75.52697 32918 ft 436 kts 237°
2026-04-22 12:19 4.87811 75.50054 32254 ft 437 kts 237°
2026-04-22 12:20 4.86310 75.47416 31714 ft 434 kts 237°
2026-04-22 12:20 4.84837 75.44825 31216 ft 431 kts 237°
2026-04-22 12:20 4.83348 75.42216 30990 ft 432 kts 237°
2026-04-22 12:20 4.81850 75.39598 30754 ft 433 kts 237°
2026-04-22 12:21 4.80351 75.36986 30526 ft 432 kts 237°
2026-04-22 12:21 4.78852 75.34370 30297 ft 432 kts 237°
2026-04-22 12:21 4.77360 75.31766 30071 ft 430 kts 237°
2026-04-22 12:21 4.75871 75.29169 29838 ft 429 kts 237°
2026-04-22 12:22 4.74389 75.26580 29577 ft 428 kts 237°
2026-04-22 12:22 4.72907 75.23994 29308 ft 427 kts 237°
2026-04-22 12:22 4.71438 75.21430 28854 ft 422 kts 238°
2026-04-22 12:22 4.69982 75.18883 28344 ft 419 kts 238°
2026-04-22 12:23 4.68540 75.16359 27845 ft 416 kts 238°
2026-04-22 12:23 4.67109 75.13856 27359 ft 413 kts 238°
2026-04-22 12:23 4.65688 75.11370 26901 ft 410 kts 238°
2026-04-22 12:23 4.64269 75.08896 26452 ft 407 kts 238°
2026-04-22 12:24 4.62862 75.06443 26025 ft 405 kts 238°
2026-04-22 12:24 4.61478 75.04031 25636 ft 401 kts 239°
2026-04-22 12:24 4.60076 75.01586 25254 ft 398 kts 239°
2026-04-22 12:24 4.58717 74.99213 24876 ft 396 kts 239°
2026-04-22 12:25 4.57351 74.96825 24502 ft 394 kts 239°
2026-04-22 12:25 4.55990 74.94447 24127 ft 392 kts 239°
2026-04-22 12:25 4.54636 74.92088 23750 ft 389 kts 239°
2026-04-22 12:25 4.53290 74.89743 23369 ft 387 kts 239°
2026-04-22 12:26 4.51948 74.87407 22913 ft 385 kts 239°
2026-04-22 12:26 4.50616 74.85084 22444 ft 383 kts 239°
2026-04-22 12:26 4.49293 74.82776 21996 ft 381 kts 239°
2026-04-22 12:26 4.47977 74.80484 21537 ft 379 kts 239°
2026-04-22 12:27 4.46668 74.78203 21081 ft 376 kts 239°
2026-04-22 12:27 4.45364 74.75930 20618 ft 374 kts 240°
2026-04-22 12:27 4.44125 74.73644 20159 ft 372 kts 244°
2026-04-22 12:27 4.43015 74.71310 19714 ft 371 kts 245°
2026-04-22 12:28 4.41946 74.68966 19275 ft 369 kts 245°
2026-04-22 12:28 4.40906 74.66635 18842 ft 367 kts 246°
2026-04-22 12:28 4.39885 74.64331 18427 ft 365 kts 246°
2026-04-22 12:28 4.38855 74.62014 17992 ft 363 kts 246°
2026-04-22 12:29 4.37822 74.59706 17519 ft 361 kts 246°
2026-04-22 12:29 4.36794 74.57419 17067 ft 359 kts 246°
2026-04-22 12:29 4.35771 74.55147 16618 ft 357 kts 246°
2026-04-22 12:29 4.34753 74.52888 16173 ft 354 kts 246°
2026-04-22 12:30 4.32733 74.48418 15327 ft 350 kts 245°
2026-04-22 12:30 4.31733 74.46203 14903 ft 348 kts 245°
2026-04-22 12:30 4.30740 74.43998 14484 ft 346 kts 245°
2026-04-22 12:31 4.29750 74.41807 14087 ft 344 kts 245°
2026-04-22 12:31 4.28765 74.39628 13706 ft 342 kts 245°
2026-04-22 12:31 4.27789 74.37466 13259 ft 340 kts 245°
2026-04-22 12:31 4.26818 74.35317 12828 ft 338 kts 245°
2026-04-22 12:32 4.25851 74.33180 12415 ft 336 kts 245°
2026-04-22 12:32 4.23930 74.28936 11577 ft 332 kts 245°
2026-04-22 12:32 4.22992 74.26862 11172 ft 331 kts 245°
2026-04-22 12:33 4.22048 74.24767 10771 ft 329 kts 246°
2026-04-22 12:33 4.21106 74.22682 10380 ft 328 kts 245°
2026-04-22 12:33 4.20167 74.20606 9995 ft 327 kts 246°
2026-04-22 12:33 4.19242 74.18561 9857 ft 316 kts 246°
2026-04-22 12:34 4.18339 74.16562 9724 ft 306 kts 246°
2026-04-22 12:34 4.17480 74.14661 9448 ft 302 kts 246°
2026-04-22 12:34 4.16616 74.12748 9117 ft 300 kts 246°
2026-04-22 12:34 4.15757 74.10848 8786 ft 298 kts 246°
2026-04-22 12:35 4.14902 74.08960 8455 ft 297 kts 245°
2026-04-22 12:35 4.14051 74.07083 8133 ft 295 kts 246°
2026-04-22 12:35 4.13204 74.05212 7809 ft 294 kts 246°
2026-04-22 12:35 4.12363 74.03351 7487 ft 292 kts 246°
2026-04-22 12:36 4.11530 74.01504 7175 ft 291 kts 246°
2026-04-22 12:36 4.10699 73.99661 6853 ft 289 kts 246°
2026-04-22 12:36 4.09869 73.97829 6559 ft 288 kts 245°
2026-04-22 12:36 4.09043 73.96005 6258 ft 287 kts 246°
2026-04-22 12:37 4.08221 73.94185 5943 ft 285 kts 246°
2026-04-22 12:37 4.07405 73.92380 5626 ft 284 kts 246°
2026-04-22 12:37 4.06602 73.90606 5322 ft 282 kts 246°
2026-04-22 12:37 4.05784 73.88800 5009 ft 280 kts 246°
2026-04-22 12:38 4.04981 73.87025 4706 ft 279 kts 246°
2026-04-22 12:38 4.04194 73.85288 4407 ft 277 kts 246°
2026-04-22 12:38 4.03397 73.83534 4105 ft 275 kts 246°
2026-04-22 12:38 4.02612 73.81799 4005 ft 273 kts 246°
2026-04-22 12:39 4.01826 73.80059 4013 ft 275 kts 246°
2026-04-22 12:39 4.00245 73.76561 4015 ft 275 kts 246°
2026-04-22 12:39 3.99456 73.74820 4014 ft 274 kts 246°
2026-04-22 12:40 3.98689 73.73128 4008 ft 259 kts 246°
2026-04-22 12:40 3.97962 73.71526 4011 ft 244 kts 246°
2026-04-22 12:40 3.97280 73.70032 4009 ft 229 kts 245°
2026-04-22 12:40 3.96629 73.68602 4013 ft 225 kts 246°
2026-04-22 12:41 3.95985 73.67179 4014 ft 224 kts 246°
2026-04-22 12:41 3.95343 73.65755 4016 ft 224 kts 247°
2026-04-22 12:41 3.94939 73.64260 4015 ft 220 kts 265°
2026-04-22 12:41 3.94918 73.62771 4013 ft 209 kts 271°
2026-04-22 12:42 3.94920 73.61335 4036 ft 200 kts 270°
2026-04-22 12:42 3.94918 73.59999 4022 ft 184 kts 271°
2026-04-22 12:42 3.94915 73.58783 3996 ft 165 kts 271°
2026-04-22 12:42 3.94911 73.57684 3995 ft 158 kts 271°
2026-04-22 12:43 3.94907 73.56590 4007 ft 157 kts 270°
2026-04-22 12:43 3.95008 73.55510 4010 ft 156 kts 287°
2026-04-22 12:43 3.95445 73.54528 4016 ft 155 kts 306°
2026-04-22 12:43 3.96175 73.53752 4016 ft 153 kts 326°
2026-04-22 12:44 3.97121 73.53282 3961 ft 154 kts 353°
2026-04-22 12:44 3.98172 73.53201 3790 ft 151 kts 358°
2026-04-22 12:44 3.99219 73.53156 3598 ft 150 kts 360°
2026-04-22 12:44 4.00249 73.53135 3431 ft 147 kts
2026-04-22 12:45 4.01261 73.53125 3231 ft 145 kts
2026-04-22 12:45 4.02272 73.53121 3046 ft 145 kts
2026-04-22 12:45 4.03276 73.53118 2857 ft 145 kts
2026-04-22 12:45 4.04285 73.53117 2667 ft 145 kts
2026-04-22 12:46 4.05292 73.53114 2482 ft 145 kts
2026-04-22 12:46 4.06297 73.53113 2294 ft 145 kts
2026-04-22 12:46 4.07302 73.53112 2102 ft 144 kts
2026-04-22 12:46 4.08308 73.53111 1915 ft 144 kts
2026-04-22 12:47 4.09308 73.53111 1737 ft 144 kts 360°
2026-04-22 12:47 4.10293 73.53110 1557 ft 143 kts
2026-04-22 12:47 4.11289 73.53109 1363 ft 143 kts
2026-04-22 12:47 4.12283 73.53108 1182 ft 143 kts
2026-04-22 12:48 4.13275 73.53106 1007 ft 142 kts
2026-04-22 12:48 4.14267 73.53106 825 ft 142 kts
2026-04-22 12:48 4.15255 73.53118 655 ft 142 kts
2026-04-22 12:48 4.16246 73.53119 512 ft 143 kts
2026-04-22 12:49 4.17240 73.53102 299 ft 142 kts
2026-04-22 12:49 4.18229 73.53091 94 ft 142 kts
2026-04-22 12:49 4.19195 73.53105 13 ft 128 kts 360°
2026-04-22 12:49 4.19782 73.53101 13 ft 42 kts 359°
2026-04-22 12:50 4.20117 73.53103 12 ft 36 kts
2026-04-22 12:50 4.20313 73.53103 12 ft 23 kts 352°
2026-04-22 12:50 4.20366 73.52974 12 ft 17 kts 270°
2026-04-22 12:50 4.20361 73.52920 12 ft 8 kts 243°
2026-04-22 12:51 4.20305 73.52898 12 ft 10 kts 182°
2026-04-22 12:51 4.20224 73.52898 12 ft 13 kts 178°
2026-04-22 12:51 4.20124 73.52901 12 ft 16 kts 178°
2026-04-22 12:51 4.20015 73.52901 12 ft 12 kts 180°
2026-04-22 12:52 4.19919 73.52903 12 ft 15 kts 178°
2026-04-22 12:52 4.19803 73.52905 12 ft 17 kts 179°
2026-04-22 12:52 4.19712 73.52906 12 ft 10 kts 179°
2026-04-22 12:52 4.19630 73.52907 12 ft 13 kts 179°
2026-04-22 12:53 4.19527 73.52910 12 ft 16 kts 180°
2026-04-22 12:53 4.19445 73.52911 12 ft 18 kts 178°
2026-04-22 12:53 4.19323 73.52913 12 ft 17 kts 178°
2026-04-22 12:53 4.19219 73.52915 12 ft 13 kts 179°
2026-04-22 12:54 4.19116 73.52917 15 ft 16 kts 179°
2026-04-22 12:54 4.18995 73.52918 13 ft 19 kts 179°
2026-04-22 12:54 4.18854 73.52921 14 ft 16 kts 180°
2026-04-22 12:54 4.18760 73.52922 13 ft 14 kts 178°
2026-04-22 12:55 4.18650 73.52924 13 ft 17 kts 179°
2026-04-22 12:55 4.18521 73.52926 13 ft 20 kts 179°
2026-04-22 12:55 4.18374 73.52928 13 ft 21 kts 178°
2026-04-22 12:55 4.18263 73.52930 13 ft 12 kts 179°
2026-04-22 12:56 4.18175 73.52932 13 ft 7 kts 180°
2026-04-22 12:56 4.18129 73.52911 13 ft 9 kts 236°
2026-04-22 12:56 4.18111 73.52879 13 ft 5 kts 232°
2026-04-22 12:56 4.18071 73.52865 13 ft 8 kts 180°
2026-04-22 12:57 4.18039 73.52860 13 ft 3 kts 227°
2026-04-22 12:57 4.18033 73.52833 13 ft 5 kts 268°
2026-04-22 12:57 4.18038 73.52810 13 ft 2 kts 284°
2026-04-22 12:57 4.18042 73.52792 14 ft 1 kts 284°
2026-04-22 12:58 4.18044 73.52787 13 ft 1 kts 284°